Temp
21 21 21 21 25 25 22 19 19 17 18 14 14 15 14 13 14 13 9 8 8 8 8 9 8 7 7 7 7 7 7 7 7 8 8 8 8 8 9 9 9 10 10 10 12 13 14 13 14
21 21 22 22 26 25 22 19 18 16 14 13 13 14 14 12 11 10 9 8 8 8 8 8 9 8 8 7 6 7 6 7 7 7 7 7 7 7 7 8 8 8 9 10 10 12 13 13 14
21 22 23 25 25 25 22 18 17 14 13 14 13 12 12 11 10 9 8 8 8 8 7 7 9 8 7 6 6 6 6 6 6 6 7 7 7 7 7 7 7 8 9 8 9 9 12 12 13
21 21 22 25 22 16 18 16 15 15 14 13 13 12 10 8 8 8 7 7 7 7 6 6 8 8 7 6 6 5 5 5 5 6 6 6 6 7 7 6 7 6 7 9 9 8 9 10 11
22 22 24 22 17 16 15 14 14 15 13 13 13 12 10 8 8 7 7 7 7 7 6 6 7 7 7 7 7 6 5 5 5 4 5 5 5 6 6 6 6 6 6 7 8 7 8 9 9
23 22 25 24 17 15 14 13 14 14 13 12 13 12 10 9 7 7 7 7 7 6 5 5 4 5 6 6 6 5 4 3 3 3 4 4 4 4 5 5 5 5 5 6 6 7 7 8 9
23 24 22 20 17 16 14 13 13 13 13 11 11 12 10 8 6 7 7 7 6 5 5 4 4 3 3 4 5 4 5 4 3 2 2 2 3 3 4 3 3 4 4 5 6 6 6 7 7
20 22 20 19 18 15 13 11 11 11 10 9 10 11 10 7 6 6 6 6 6 5 4 4 3 3 2 3 3 4 4 5 4 4 2 2 2 2 2 2 3 3 4 4 5 5 5 6 6
18 22 21 18 18 13 12 12 10 10 9 8 7 7 6 6 6 6 6 6 5 5 4 3 2 2 1 1 1 0 0 -0 -0 0 1 1 2 2 2 2 2 2 3 4 4 5 5 5 6
20 21 16 14 14 14 12 12 11 11 10 9 8 7 6 6 6 6 6 5 5 4 3 3 2 1 1 1 1 0 0 0 -0 -0 -0 0 0 1 1 1 2 3 3 3 3 3 4 5 6
14 16 14 13 13 12 11 10 10 10 9 7 6 6 6 6 6 6 5 5 4 3 3 2 2 1 1 1 0 -0 -1 -1 -1 -1 -1 -1 -0 0 1 1 1 2 2 2 3 4 4 5 5
14 12 13 11 11 11 11 9 7 7 6 5 5 5 5 6 5 5 4 4 3 3 2 2 1 1 0 -0 -1 -2 -2 -2 -1 -1 -1 -1 -1 -1 -0 0 1 1 1 2 2 3 4 4 5
14 12 11 10 10 9 9 8 7 6 5 5 5 5 5 5 4 4 3 3 3 2 2 1 0 -0 -1 -2 -2 -2 -2 -2 -2 -2 -2 -1 -1 -1 -2 -1 0 1 1 1 2 2 3 3 4
12 12 11 10 10 9 9 8 8 6 5 6 6 6 5 4 4 3 3 2 2 2 1 1 -0 -1 -1 -1 -2 -2 -2 -2 -2 -2 -2 -2 -2 -2 -2 -2 -2 -1 0 1 1 1 2 3 3
12 12 11 11 10 9 10 8 7 6 6 7 7 6 5 4 3 3 2 2 2 1 1 0 -0 -1 -2 -3 -2 -2 -2 -2 -1 -1 -1 -2 -2 -1 -2 -1 -2 -2 -2 -1 -0 1 1 2 3
15 15 15 12 11 10 10 10 6 6 7 7 6 6 5 4 3 2 2 1 1 1 1 -0 -1 -2 -2 -2 -2 -2 -2 -2 -2 -1 -1 -1 -1 -1 -1 -1 -1 -1 -1 -2 -1 -0 1 1 2
15 19 16 11 11 11 11 9 6 6 7 7 6 6 5 4 3 2 1 1 1 0 -0 -1 -1 -2 -2 -2 -1 -1 -1 -2 -2 -2 -1 -2 -1 -1 -1 -1 -1 -1 -1 -1 -1 -1 -1 1 2
19 18 15 14 11 11 10 9 7 6 7 7 6 5 4 4 3 2 1 1 0 -0 -0 -1 -2 -2 -2 -2 -1 -1 -2 -2 -2 -2 -2 -2 -2 -1 -1 -1 -1 -1 -1 -1 -2 -2 -2 -1 0
15 16 15 11 10 11 10 9 8 7 7 6 6 5 4 3 3 2 1 0 -0 -0 -1 -1 -2 -2 -2 -2 -2 -2 -2 -3 -3 -2 -2 -2 -2 -2 -1 -1 -2 -1 -1 -1 -1 -1 -2 -1 -1
15 16 14 10 9 11 9 9 8 7 6 6 5 4 4 3 2 2 1 0 -0 -0 -1 -1 -2 -2 -3 -3 -3 -3 -3 -3 -3 -3 -2 -2 -2 -2 -2 -2 -1 -1 -1 -1 -1 -1 -1 -2 -2
14 15 13 13 9 9 9 10 8 8 6 7 5 4 3 2 2 1 1 0 0 -1 -1 -2 -2 -3 -3 -3 -3 -3 -3 -3 -3 -3 -2 -2 -2 -2 -2 -2 -2 -2 -2 -1 -1 -1 -1 -1 -2
16 11 11 11 11 15 10 15 9 8 8 7 6 4 3 2 1 1 0 -0 -0 -1 -2 -2 -2 -3 -3 -3 -3 -3 -4 -3 -3 -3 -3 -3 -2 -2 -2 -2 -2 -2 -2 -1 -1 -1 -1 -1 -1
12 10 11 11 12 12 10 11 10 7 8 7 5 4 3 2 1 0 -0 -1 -1 -2 -2 -2 -2 -3 -3 -4 -3 -3 -3 -4 -3 -3 -4 -4 -3 -3 -2 -2 -2 -2 -2 -1 -1 -1 -1 -1 -1
9 11 11 11 12 15 11 11 12 9 6 6 5 4 2 2 1 0 -1 -1 -1 -2 -2 -2 -2 -3 -3 -4 -4 -4 -4 -4 -4 -3 -4 -4 -4 -4 -3 -2 -2 -2 -2 -2 -1 -1 -1 -1 -1
12 13 18 17 17 17 10 10 11 6 5 4 3 2 2 1 0 -0 -1 -1 -2 -2 -2 -2 -3 -3 -3 -3 -4 -4 -4 -4 -4 -4 -4 -4 -4 -3 -3 -3 -2 -2 -2 -2 -2 -1 -1 -1 -2
11 12 16 16 17 16 9 12 11 6 4 4 3 2 2 1 -0 -1 -1 -2 -2 -2 -2 -2 -3 -3 -3 -3 -3 -4 -4 -4 -4 -4 -5 -4 -4 -3 -3 -3 -3 -2 -2 -2 -2 -1 -1 -2 -2
12 14 9 12 10 11 14 10 7 6 7 5 3 3 2 0 -0 -1 -2 -3 -2 -2 -2 -3 -3 -3 -3 -3 -3 -3 -3 -4 -4 -4 -4 -4 -4 -3 -3 -3 -3 -3 -2 -2 -2 -2 -1 -2 -2
11 9 13 13 12 14 16 12 13 7 6 5 4 2 1 0 -1 -1 -2 -3 -2 -3 -2 -3 -3 -3 -3 -3 -3 -3 -3 -4 -4 -4 -4 -4 -4 -3 -3 -3 -2 -2 -2 -2 -2 -1 -2 -2 -2
11 11 9 10 10 13 14 15 10 7 5 4 3 2 1 -0 -1 -1 -2 -2 -2 -3 -3 -3 -3 -3 -3 -3 -3 -3 -4 -4 -4 -4 -4 -4 -4 -4 -3 -2 -2 -1 -1 -2 -1 -1 -1 -1 -1
8 9 10 12 10 7 8 12 7 5 4 2 2 1 1 -0 -1 -1 -1 -2 -2 -3 -3 -3 -2 -3 -3 -3 -3 -3 -4 -4 -4 -3 -4 -4 -4 -3 -3 -2 -2 -0 -0 -0 -1 -1 -1 -1 -1
Height
1534 1533 1533 1534 1536 1531 1548 1559 1558 1563 1563 1573 1572 1569 1575 1578 1579 1582 1587 1584 1582 1579 1575 1572 1569 1567 1564 1561 1558 1555 1551 1548 1545 1543 1540 1538 1535 1534 1533 1532 1531 1528 1527 1526 1524 1523 1522 1520 1520
1534 1534 1534 1533 1531 1535 1546 1557 1561 1568 1572 1574 1575 1575 1576 1582 1585 1587 1587 1583 1582 1579 1575 1571 1567 1564 1561 1558 1555 1553 1550 1547 1543 1540 1538 1536 1534 1533 1531 1529 1527 1524 1523 1522 1522 1520 1519 1518 1517
1534 1534 1535 1530 1532 1534 1546 1563 1567 1573 1575 1575 1577 1579 1580 1586 1587 1587 1586 1583 1581 1578 1574 1569 1565 1562 1558 1554 1552 1548 1546 1543 1541 1538 1536 1533 1531 1529 1527 1525 1523 1521 1520 1519 1517 1517 1516 1515 1515
1534 1536 1537 1531 1545 1565 1563 1569 1571 1574 1576 1578 1578 1581 1587 1590 1590 1588 1586 1583 1580 1576 1572 1567 1561 1558 1554 1550 1546 1543 1540 1538 1535 1533 1531 1528 1526 1525 1523 1522 1520 1517 1515 1514 1513 1514 1512 1512 1511
1535 1535 1533 1542 1560 1568 1572 1574 1573 1574 1578 1580 1579 1584 1587 1591 1590 1588 1585 1582 1578 1574 1569 1565 1560 1555 1550 1546 1542 1538 1535 1532 1530 1526 1524 1522 1520 1519 1517 1515 1514 1512 1510 1508 1508 1509 1509 1507 1508
1535 1534 1531 1537 1559 1572 1576 1577 1577 1578 1580 1582 1583 1585 1590 1591 1588 1586 1584 1581 1577 1573 1567 1562 1557 1551 1546 1541 1537 1533 1530 1527 1523 1520 1518 1515 1512 1511 1510 1510 1507 1506 1505 1503 1504 1503 1504 1503 1502
1534 1532 1541 1546 1562 1569 1576 1580 1580 1581 1582 1585 1586 1585 1590 1590 1587 1585 1583 1580 1576 1571 1565 1559 1553 1547 1542 1536 1532 1527 1523 1519 1516 1513 1510 1506 1505 1504 1502 1501 1499 1498 1498 1497 1498 1499 1498 1498 1498
1539 1538 1546 1551 1558 1570 1578 1581 1585 1585 1588 1589 1588 1589 1591 1591 1587 1585 1582 1578 1573 1567 1562 1556 1550 1545 1539 1533 1528 1523 1518 1514 1509 1505 1501 1499 1496 1496 1494 1493 1492 1491 1491 1491 1491 1493 1491 1492 1492
1539 1537 1545 1556 1557 1572 1579 1581 1587 1590 1590 1592 1593 1595 1595 1591 1588 1585 1580 1575 1570 1565 1560 1554 1548 1543 1537 1532 1526 1520 1515 1510 1505 1501 1497 1494 1493 1492 1490 1488 1486 1485 1485 1485 1486 1486 1486 1485 1484
1542 1541 1559 1568 1568 1572 1579 1581 1587 1590 1591 1594 1595 1596 1594 1591 1587 1583 1578 1573 1568 1562 1556 1551 1546 1540 1535 1530 1524 1519 1515 1509 1505 1502 1497 1492 1490 1486 1484 1481 1479 1477 1478 1477 1477 1477 1477 1477 1480
1553 1556 1568 1572 1573 1577 1581 1586 1589 1589 1594 1597 1597 1596 1593 1590 1586 1581 1576 1572 1567 1562 1556 1550 1544 1538 1533 1528 1523 1517 1511 1506 1502 1499 1494 1488 1487 1483 1480 1477 1476 1474 1473 1472 1472 1473 1472 1474 1475
1560 1570 1570 1577 1579 1581 1584 1588 1594 1595 1599 1599 1598 1596 1592 1588 1583 1578 1574 1570 1564 1559 1553 1548 1542 1537 1531 1526 1519 1512 1507 1504 1498 1494 1491 1485 1481 1479 1477 1474 1472 1470 1469 1468 1468 1467 1467 1467 1468
1562 1573 1576 1579 1582 1585 1588 1591 1593 1599 1600 1600 1598 1594 1590 1586 1582 1578 1573 1567 1562 1557 1551 1545 1539 1534 1527 1521 1516 1511 1505 1500 1496 1492 1487 1482 1479 1476 1471 1469 1467 1466 1464 1465 1462 1462 1462 1462 1463
1568 1573 1579 1584 1585 1589 1590 1594 1594 1601 1601 1599 1596 1592 1589 1585 1581 1576 1571 1565 1560 1554 1549 1543 1536 1530 1525 1519 1513 1508 1503 1498 1494 1489 1485 1480 1477 1472 1467 1463 1461 1460 1460 1460 1458 1457 1457 1457 1458
1570 1576 1581 1585 1586 1590 1590 1594 1599 1601 1599 1597 1594 1591 1588 1584 1579 1574 1568 1563 1558 1552 1547 1540 1532 1526 1521 1514 1511 1506 1502 1497 1493 1487 1482 1477 1473 1468 1464 1460 1458 1455 1453 1452 1450 1451 1452 1451 1450
1568 1570 1569 1583 1586 1589 1589 1587 1600 1600 1598 1595 1592 1589 1585 1581 1577 1572 1566 1560 1556 1550 1545 1538 1530 1524 1518 1513 1509 1505 1501 1496 1490 1485 1480 1474 1469 1465 1460 1456 1453 1450 1447 1445 1444 1446 1444 1444 1445
1564 1550 1562 1581 1585 1587 1586 1589 1599 1599 1596 1593 1591 1587 1583 1579 1573 1568 1563 1559 1554 1548 1543 1535 1529 1523 1517 1513 1509 1504 1499 1494 1488 1482 1477 1471 1465 1460 1455 1451 1448 1445 1443 1441 1440 1439 1439 1440 1441
1551 1555 1564 1567 1584 1584 1584 1589 1596 1597 1595 1592 1589 1585 1582 1578 1573 1567 1562 1557 1553 1547 1542 1535 1528 1523 1517 1512 1507 1502 1497 1490 1485 1479 1473 1468 1462 1456 1451 1447 1443 1441 1438 1436 1435 1434 1434 1434 1435
1562 1561 1563 1579 1584 1582 1582 1588 1593 1595 1593 1590 1588 1585 1581 1577 1571 1567 1562 1556 1551 1547 1540 1534 1528 1522 1516 1510 1504 1499 1493 1486 1480 1476 1470 1464 1458 1453 1448 1442 1438 1436 1434 1433 1431 1430 1430 1430 1431
1562 1560 1569 1582 1583 1581 1584 1587 1592 1592 1593 1591 1589 1585 1580 1574 1570 1566 1562 1556 1550 1545 1539 1534 1528 1522 1516 1510 1505 1499 1491 1484 1478 1472 1466 1460 1455 1449 1444 1439 1435 1431 1429 1428 1427 1427 1427 1426 1427
1564 1563 1570 1570 1582 1583 1583 1580 1588 1589 1590 1589 1588 1585 1581 1576 1570 1564 1560 1555 1550 1543 1538 1533 1527 1521 1515 1509 1502 1496 1490 1483 1476 1469 1462 1457 1451 1445 1441 1436 1432 1429 1426 1423 1422 1422 1421 1422 1424
1561 1575 1574 1573 1573 1560 1582 1554 1581 1585 1585 1586 1585 1583 1580 1575 1571 1565 1560 1554 1549 1543 1538 1533 1527 1520 1514 1508 1501 1495 1488 1480 1474 1467 1460 1454 1448 1442 1437 1432 1428 1425 1421 1419 1417 1416 1417 1418 1419
1571 1575 1572 1571 1568 1571 1577 1571 1571 1585 1580 1584 1582 1581 1578 1574 1570 1565 1559 1554 1549 1543 1537 1532 1527 1520 1514 1506 1501 1493 1486 1479 1472 1465 1459 1452 1445 1439 1434 1429 1425 1421 1417 1414 1412 1410 1412 1412 1414
1576 1573 1572 1571 1567 1555 1569 1570 1562 1575 1586 1584 1582 1580 1577 1572 1568 1565 1560 1554 1549 1543 1537 1532 1526 1518 1512 1505 1498 1492 1485 1478 1470 1463 1456 1449 1443 1437 1431 1426 1421 1418 1415 1411 1408 1407 1407 1408 1410
1570 1565 1546 1546 1546 1543 1575 1572 1561 1582 1586 1586 1584 1580 1576 1571 1567 1562 1558 1553 1547 1542 1537 1532 1525 1517 1512 1505 1498 1491 1486 1479 1471 1464 1456 1448 1441 1435 1429 1424 1419 1415 1412 1410 1408 1406 1405 1405 1406
1573 1570 1555 1560 1548 1548 1576 1558 1562 1582 1586 1584 1584 1581 1577 1572 1567 1562 1558 1552 1547 1543 1538 1532 1525 1518 1512 1505 1499 1493 1487 1479 1471 1464 1456 1449 1442 1435 1428 1422 1417 1412 1409 1408 1406 1404 1404 1403 1404
1571 1568 1583 1573 1579 1571 1548 1564 1578 1581 1580 1582 1580 1578 1575 1570 1567 1562 1557 1552 1548 1543 1538 1532 1526 1519 1513 1506 1500 1493 1486 1480 1472 1464 1458 1450 1443 1435 1427 1421 1414 1409 1406 1405 1405 1403 1403 1402 1402
1576 1586 1571 1569 1570 1556 1535 1552 1549 1573 1577 1579 1577 1575 1572 1570 1566 1562 1557 1552 1548 1543 1538 1533 1527 1520 1514 1507 1501 1494 1487 1480 1473 1465 1458 1451 1444 1435 1427 1418 1411 1406 1403 1402 1402 1402 1402 1401 1401
1578 1576 1584 1582 1582 1565 1556 1537 1562 1573 1579 1578 1575 1574 1572 1567 1565 1562 1558 1553 1548 1543 1538 1533 1527 1521 1514 1507 1501 1495 1488 1480 1474 1467 1460 1452 1445 1436 1427 1417 1408 1403 1401 1400 1402 1403 1403 1402 1401
1586 1582 1581 1571 1578 1589 1585 1555 1571 1576 1578 1578 1577 1575 1571 1568 1564 1561 1558 1553 1548 1542 1537 1533 1528 1521 1515 1508 1502 1495 1487 1480 1474 1468 1461 1454 1447 1440 1431 1420 1410 1405 1402 1402 1403 1404 1404 1403 1402
Wind_Speed
2 1 4 2 4 1 3 4 2 3 3 7 11 14 15 12 7 4 3 12 15 17 20 25 25 24 24 24 24 24 24 24 23 22 21 21 20 20 18 17 14 12 9 13 12 14 13 10 13
1 3 2 2 5 6 5 4 5 5 8 5 6 3 8 7 9 4 5 15 16 18 22 26 29 29 29 27 25 24 23 22 23 23 23 21 19 19 19 18 17 17 14 12 14 15 15 18 16
2 3 2 1 1 4 2 4 6 10 5 3 4 8 6 5 8 5 12 15 16 19 21 25 31 31 30 27 25 25 25 24 23 22 21 22 21 20 19 18 18 19 21 17 14 14 20 17 19
0 1 3 2 6 6 5 5 5 5 6 6 6 8 9 9 4 10 12 15 18 20 23 26 32 32 32 31 30 29 27 26 25 24 22 22 22 22 22 20 19 18 20 22 18 14 13 14 19
1 0 2 4 7 7 9 10 5 5 5 9 1 6 7 8 8 11 15 18 21 23 25 26 33 34 34 34 35 33 31 29 25 25 25 24 24 23 22 22 20 20 19 21 19 17 11 12 12
2 2 5 5 8 9 8 8 12 11 8 6 8 5 6 8 14 16 18 19 20 22 23 24 26 30 33 34 35 33 27 23 24 25 24 23 22 23 22 22 20 20 20 21 18 18 17 15 12
2 2 3 6 10 7 6 6 9 9 7 12 4 3 4 13 18 20 20 19 20 22 24 26 25 28 29 31 32 30 31 31 29 26 25 25 24 22 22 23 24 25 23 22 19 19 17 17 17
2 2 5 3 10 5 7 6 8 8 11 4 6 6 7 18 20 19 19 20 23 24 26 26 26 26 28 28 28 29 29 29 28 29 29 27 28 24 24 24 25 26 28 24 21 20 19 18 17
2 1 3 3 6 8 14 6 9 11 17 18 10 10 10 14 16 19 22 24 25 25 26 24 25 25 26 25 25 26 25 25 25 23 23 24 21 21 23 22 23 23 24 23 22 21 21 19 26
6 2 4 3 6 13 10 10 11 7 10 11 10 11 13 16 18 21 24 26 27 29 27 26 25 25 25 24 24 23 23 23 23 22 21 20 21 20 22 24 24 28 26 24 23 21 23 24 20
6 4 7 8 16 17 17 15 7 8 9 10 11 13 16 18 20 22 24 26 27 27 26 26 25 26 25 25 23 22 23 23 21 21 23 20 20 18 18 18 17 16 17 19 19 19 19 18 18
8 8 8 12 16 15 12 12 20 15 6 5 7 11 14 19 23 24 24 25 26 26 26 26 24 24 24 23 24 24 24 25 22 24 24 22 20 18 17 17 18 17 16 17 17 17 18 18 19
15 13 14 14 17 18 19 16 15 12 7 6 8 12 17 21 22 22 23 24 25 26 26 25 25 23 25 24 25 23 25 24 23 25 24 22 22 21 18 17 17 18 18 18 16 17 17 18 18
13 21 21 17 16 13 15 10 3 8 6 7 11 16 18 20 22 23 24 25 25 26 26 26 26 25 25 24 25 23 23 24 24 22 22 21 22 21 20 21 20 17 17 18 17 16 16 17 17
21 14 14 13 8 15 12 10 7 5 6 8 13 16 18 20 22 23 24 25 26 26 26 25 27 25 26 25 24 24 23 24 23 24 23 23 22 22 22 22 22 22 18 17 16 18 18 17 17
4 7 6 8 9 9 4 4 6 5 6 10 14 18 20 23 23 24 24 24 25 26 24 27 26 27 26 25 24 23 24 25 25 24 24 26 24 23 23 23 23 22 20 18 14 15 17 17 17
6 2 2 6 8 3 6 6 6 3 8 12 17 20 22 24 24 23 24 24 24 24 25 26 27 26 27 25 22 23 23 23 24 22 22 25 25 26 25 25 24 21 21 20 18 14 14 17 18
2 2 2 2 5 5 5 8 8 3 10 14 18 21 22 24 25 24 25 24 23 23 25 25 25 25 26 23 23 23 23 26 25 24 25 24 26 26 25 24 22 20 19 19 18 17 14 13 15
1 1 3 5 4 4 5 10 7 2 10 17 20 22 24 26 25 24 23 23 22 24 25 25 26 26 26 24 26 26 29 30 27 21 24 23 26 25 24 21 20 19 19 18 18 18 17 15 13
3 3 3 6 3 5 7 7 5 3 5 14 20 21 24 27 26 24 24 23 24 26 24 25 26 26 25 24 26 27 30 27 25 24 25 24 25 23 20 21 19 18 18 18 18 17 17 14 12
3 3 1 3 5 2 6 7 7 4 5 15 17 18 22 24 25 25 26 24 26 25 25 26 27 26 25 26 27 28 26 24 23 25 27 31 24 22 20 17 17 18 17 17 17 18 19 18 12
0 3 5 5 6 2 3 2 5 2 4 15 18 20 23 26 24 23 25 25 25 25 23 24 27 27 25 25 27 27 27 29 28 28 27 29 27 23 19 19 18 18 17 17 17 17 18 18 17
5 1 1 5 4 3 5 4 5 1 5 15 20 20 22 23 22 23 24 24 23 23 23 24 26 25 25 25 24 26 28 27 30 28 28 28 28 23 21 17 16 16 17 16 18 14 16 17 17
1 4 6 4 2 4 4 3 5 2 8 12 18 19 23 24 21 21 22 22 23 23 23 24 26 25 25 26 25 24 27 27 31 31 31 31 29 26 24 23 19 15 14 14 12 9 11 14 16
1 3 2 3 3 3 4 4 4 6 4 10 15 18 21 22 20 21 23 23 23 24 24 25 26 26 26 26 26 25 25 25 29 29 31 29 29 28 25 24 20 17 12 12 11 8 8 11 12
5 4 3 5 4 4 3 4 4 6 4 10 11 13 18 21 19 20 21 21 22 23 24 25 25 26 26 26 26 24 24 25 27 27 29 31 28 28 28 24 21 14 13 9 9 8 6 8 10
3 3 3 2 0 4 2 3 5 5 6 12 12 15 21 21 20 20 19 21 21 21 22 24 25 25 26 26 25 25 25 25 25 28 26 30 27 29 28 28 20 15 11 9 8 7 7 8 8
4 4 1 1 5 5 2 4 2 6 8 11 13 14 18 20 19 19 19 19 20 19 19 21 22 23 24 24 25 25 25 24 25 26 25 27 27 31 31 33 26 14 11 6 3 5 4 6 4
1 2 3 1 3 3 5 3 3 6 5 8 11 13 17 17 17 17 18 18 18 18 18 20 22 23 24 24 25 25 25 23 24 25 25 26 27 31 32 38 34 21 12 0 2 4 4 3 4
1 0 2 2 2 0 2 3 6 6 5 6 10 11 16 16 15 15 16 18 18 18 19 20 21 22 22 23 24 25 25 25 21 25 26 26 26 29 31 38 39 24 16 9 6 4 5 5 5
Wind_Direction
282 162 159 143 219 143 102 83 81 103 110 67 58 63 78 46 16 43 353 0 350 344 338 331 335 341 340 339 337 336 334 330 330 329 328 324 322 321 315 308 302 299 311 307 284 264 258 252 254
317 154 129 210 253 253 113 125 87 50 93 87 54 40 49 73 41 57 10 346 346 339 331 328 325 326 327 330 333 329 328 325 322 320 318 318 317 316 313 311 303 300 291 277 288 272 264 257 250
64 143 247 94 270 291 103 79 110 75 78 54 108 61 55 26 24 13 342 341 340 336 332 326 320 321 322 328 329 328 324 323 320 315 310 308 307 307 308 307 302 296 284 282 266 288 257 260 256
254 16 57 287 92 56 59 43 130 130 77 48 93 78 83 42 19 347 345 342 336 334 331 326 319 318 318 317 318 320 320 316 314 310 306 302 301 298 298 297 296 299 290 275 277 286 280 280 261
47 171 156 100 88 107 76 58 105 101 95 48 117 89 90 31 14 353 344 340 337 333 328 325 318 315 313 313 313 312 312 312 311 307 303 298 295 293 290 291 291 290 295 284 273 285 263 258 277
215 234 230 203 117 117 85 75 76 84 81 50 75 91 78 22 1 347 341 336 333 331 329 328 325 321 317 315 314 314 318 314 310 308 302 298 293 289 286 287 281 284 288 282 287 284 280 272 246
348 297 49 110 131 139 119 82 70 78 66 47 49 77 93 359 351 342 337 334 334 335 334 334 333 329 326 323 320 317 313 310 306 305 298 294 293 287 283 277 281 280 283 281 281 279 281 275 271
67 92 125 110 168 117 129 101 83 56 55 69 29 34 7 344 344 342 339 339 338 338 335 335 335 333 330 328 328 322 321 320 314 305 299 296 291 290 285 283 285 279 277 278 275 272 275 274 268
40 209 108 93 170 128 139 117 84 83 86 69 68 45 357 342 344 343 341 338 337 336 336 334 334 336 335 335 331 333 331 330 329 323 314 309 302 290 288 285 284 281 276 272 268 268 268 272 259
26 35 63 29 97 133 122 111 114 107 77 55 39 19 2 353 347 344 342 337 336 335 336 334 331 333 335 333 331 332 332 330 329 326 324 318 308 298 287 287 286 279 275 266 262 261 265 265 265
29 68 113 68 113 124 112 89 98 121 58 35 15 357 355 351 347 344 341 339 336 333 331 333 331 331 333 333 333 328 326 328 327 322 322 323 314 308 300 294 290 284 280 275 268 266 265 259 253
104 70 106 115 115 114 103 107 77 73 79 37 12 2 351 353 350 345 339 336 335 335 334 335 333 332 332 327 328 330 331 333 330 328 324 323 322 313 305 298 290 287 280 274 269 263 259 258 255
89 107 99 109 106 105 107 90 92 73 56 29 10 359 359 355 348 344 340 339 338 338 336 337 338 334 334 329 332 331 330 332 330 327 330 333 322 317 311 303 295 285 281 276 271 263 261 258 255
114 112 112 118 112 120 108 96 101 42 26 13 6 3 359 352 349 345 344 343 341 339 338 337 338 336 337 331 332 334 336 330 328 325 325 326 318 316 312 310 301 290 283 275 271 266 260 256 254
121 110 118 133 119 129 115 71 70 24 14 8 5 359 355 354 352 350 346 345 343 341 339 336 339 337 339 336 336 335 333 329 325 323 322 324 326 321 315 308 303 298 284 280 278 271 262 260 258
131 160 164 157 163 166 290 106 87 34 14 12 2 357 355 354 353 351 350 347 344 342 342 341 342 341 340 342 337 335 331 328 325 321 320 323 327 328 319 310 304 300 297 290 277 270 265 260 255
193 310 165 154 204 162 241 136 139 53 22 13 2 358 356 352 353 352 353 349 347 347 342 342 345 344 342 339 340 336 332 330 326 323 320 322 325 330 323 314 302 299 291 290 286 276 267 261 255
325 261 108 134 154 212 201 138 149 68 25 13 0 358 354 353 354 353 352 350 348 348 346 346 347 347 344 343 340 337 335 334 332 325 330 322 330 326 319 311 300 295 293 290 289 284 272 265 259
305 178 111 110 132 200 218 170 160 77 9 6 0 357 354 353 353 353 351 351 351 350 350 351 351 350 348 345 342 340 336 335 334 329 337 329 334 329 328 313 302 288 283 288 286 281 279 274 261
164 152 84 104 129 250 174 191 192 261 3 4 359 354 352 350 353 352 352 354 354 351 352 353 351 348 348 345 338 338 337 337 337 334 349 345 329 329 326 325 319 309 283 281 278 275 272 272 268
81 359 140 331 144 95 184 210 220 214 272 357 0 355 352 353 348 350 352 355 354 355 354 353 351 346 347 346 346 339 341 343 342 343 348 347 342 333 331 327 328 322 311 293 277 266 264 263 261
205 29 275 203 204 330 212 336 188 296 288 2 355 356 353 353 350 350 351 353 353 354 353 353 352 352 350 347 345 340 341 337 334 339 344 344 348 344 335 328 330 323 315 303 281 272 259 261 258
31 355 152 182 180 215 174 258 109 270 335 1 348 354 354 352 351 350 350 353 351 354 354 353 352 351 351 349 346 342 345 348 350 346 347 346 345 347 347 340 321 321 324 310 297 275 249 251 250
54 129 113 159 215 239 128 280 149 71 348 340 339 350 351 351 352 350 350 353 354 356 356 356 354 352 354 350 347 346 346 345 352 350 351 346 351 352 349 346 339 323 330 322 320 291 245 248 252
232 239 251 223 226 359 151 244 20 136 2 342 338 344 347 350 351 351 351 356 355 357 357 356 355 354 354 354 352 350 347 347 350 350 352 354 357 353 351 347 338 337 322 327 323 300 272 258 253
26 348 5 295 325 325 175 249 79 152 357 347 348 342 348 351 351 352 354 354 357 356 357 356 355 355 355 356 354 353 351 348 350 348 356 3 356 356 353 351 337 340 324 316 315 313 282 273 250
53 39 3 284 279 273 231 147 161 204 313 355 353 351 354 352 351 352 355 354 355 355 356 355 354 356 356 356 354 355 354 352 348 347 351 356 355 358 353 355 353 340 335 297 311 304 295 294 259
16 112 230 93 339 302 255 289 37 195 345 350 353 349 352 350 350 353 356 355 353 355 353 354 356 357 356 358 358 355 355 355 354 351 351 354 354 357 355 6 7 355 348 288 309 317 304 332 241
148 143 69 68 324 301 309 75 93 126 1 334 340 345 350 352 350 352 355 356 355 356 356 355 357 359 0 360 359 357 354 352 359 357 355 356 357 0 360 13 21 23 15 254 42 338 338 312 314
15 11 302 273 194 97 292 287 150 142 10 326 341 345 345 350 352 353 355 357 358 356 359 358 356 358 358 359 358 357 354 355 358 1 1 0 3 5 7 21 31 34 25 55 36 17 357 351 325